Erzurum, Turkey

12:17 AM +03 on October 19, 2017 (GMT +0300)
Erzurum

Weather History for LTCE - February, 2014

Change the Weather History Date:

Tuesday, February 18, 2014

  Actual Average Record
Temperature  
Mean Temperature 23 °F -  
Max Temperature 36 °F 34 °F 39 °F (1999)
Min Temperature 10 °F 18 °F -26 °F (2017)
Degree Days  
Heating Degree Days 42    
Moisture  
Dew Point 17 °F    
Average Humidity 91    
Maximum Humidity 100    
Minimum Humidity 64    
Precipitation  
Precipitation 0.00 in 0.04 in - ()
Sea Level Pressure  
Sea Level Pressure 30.21 in    
Wind  
Wind Speed 2 mph ()    
Max Wind Speed 7 mph    
Max Gust Speed -    
Visibility 3.3 miles    
Events Fog , Snow    
Averages and records for this station are not official NWS values.
T = Trace of Precipitation, MM = Missing Value Source: Averaged Metar Reports

Daily Weather History Graph

Daily Weather History Graph

Search for Another Location

Airport or City:

Trip Planner

Search our weather history database for the weather conditions in past years. The results will help you decide how hot, cold, wet, or windy it might be!

Date:

Astronomy

Feb. 18, 2014 Rise Set
Actual Time 6:04 AM EET 4:54 PM EET
Civil Twilight 5:37 AM EET 5:22 PM EET
Nautical Twilight 5:05 AM EET 5:53 PM EET
Astronomical Twilight 4:34 AM EET 6:25 PM EET
Moon 8:26 PM EET 7:25 AM EET
Length of Visible Light 11h 45m
Length of Day
10h 49m
Waning Gibbous, 89% of the Moon is Illuminated
Feb 18
Waning Gibbous
Feb 22
Last Quarter
Mar 1
New
Mar 8
First Quarter
Mar 16
Full

Hourly Weather History & Observations

Time (EET) Temp. Windchill Dew Point Humidity Pressure Visibility Wind Dir Wind Speed Gust Speed Precip Events Conditions
12:20 AM 17.6 °F - 15.8 °F 93% 30.21 in 4.3 mi Variable 2.3 mph - N/A   Unknown
12:50 AM 10.4 °F 4.0 °F 8.6 °F 92% 30.21 in 4.3 mi North 3.5 mph - N/A   Unknown
1:20 AM 10.4 °F - 8.6 °F 92% 30.21 in 4.3 mi Variable 1.2 mph - N/A   Unknown
1:42 AM 8.6 °F - 6.8 °F 92% 30.21 in 0.4 mi Variable 1.2 mph - N/A Fog Patches of Fog
1:47 AM 8.6 °F - 6.8 °F 92% 30.21 in 0.7 mi Variable 1.2 mph - N/A Fog Patches of Fog
1:50 AM 8.6 °F - 8.6 °F 100% 30.21 in 0.7 mi Variable 2.3 mph - N/A Fog Patches of Fog
1:53 AM 8.6 °F 2.0 °F 8.6 °F 100% 30.21 in 1.9 mi ENE 3.5 mph - N/A Fog Patches of Fog
1:58 AM 8.6 °F 2.0 °F 8.6 °F 100% 30.21 in 3.7 mi East 3.5 mph - N/A   Unknown
2:00 AM 9 °F - 9 °F 100%  in 1 mi ENE 2.3 mph - - Fog Light Fog
2:20 AM 8.6 °F - 8.6 °F 100% 30.21 in 2.5 mi Calm Calm - N/A Fog Patches of Fog
2:50 AM 6.8 °F - 6.8 °F 100% 30.21 in 2.5 mi Calm Calm - N/A Fog Patches of Fog
2:55 AM 5.0 °F - 3.2 °F 92% 30.21 in 0.9 mi Calm Calm - N/A Fog Patches of Fog
2:56 AM 5.0 °F - 3.2 °F 92% 30.21 in 0.2 mi Variable 1.2 mph - N/A Fog Patches of Fog
3:20 AM 5.0 °F - 3.2 °F 92% 30.21 in 0.2 mi Calm Calm - N/A Fog Patches of Fog
3:26 AM 5.0 °F - 3.2 °F 92% 30.21 in 0.2 mi Calm Calm - N/A Fog Light Freezing Fog
3:50 AM 6.8 °F - 5.0 °F 92% 30.21 in 0.2 mi Variable 2.3 mph - N/A Fog Light Freezing Fog
4:20 AM 5.0 °F - 3.2 °F 92% 30.21 in 0.2 mi Calm Calm - N/A Fog Light Freezing Fog
4:50 AM 5.0 °F - 3.2 °F 92% 30.24 in 0.2 mi Calm Calm - N/A Fog Light Freezing Fog
5:00 AM 6 °F - 6 °F 97%  in 0 mi Calm Calm - - Fog Fog
5:20 AM 8.6 °F - 8.6 °F 100% 30.21 in 0.2 mi Variable 1.2 mph - N/A Fog Light Freezing Fog
5:50 AM 8.6 °F - 6.8 °F 92% 30.24 in 0.2 mi WNW 2.3 mph - N/A Fog Light Freezing Fog
6:20 AM 8.6 °F - 6.8 °F 92% 30.24 in 0.2 mi Calm Calm - N/A Fog Light Freezing Fog
6:50 AM 8.6 °F - 8.6 °F 100% 30.24 in 0.2 mi Calm Calm - N/A Fog Light Freezing Fog
7:02 AM 8.6 °F - 8.6 °F 100% 30.24 in 0.1 mi Calm Calm - N/A Fog Light Freezing Fog
7:20 AM 10.4 °F - 8.6 °F 92% 30.24 in 0.1 mi Calm Calm - N/A Fog Light Freezing Fog
7:50 AM 10.4 °F - 8.6 °F 92% 30.24 in 0.1 mi Variable 1.2 mph - N/A Fog Light Freezing Fog
8:00 AM 10 °F - 10 °F 100%  in 0 mi WSW 1.2 mph - - Fog Heavy Fog
8:20 AM 12.2 °F - 10.4 °F 92% 30.24 in 0.1 mi Variable 1.2 mph - N/A Fog Light Freezing Fog
8:50 AM 15.8 °F - 15.8 °F 100% 30.24 in 0.2 mi Calm Calm - N/A Fog Light Freezing Fog
9:20 AM 12.2 °F - 12.2 °F 100% 30.24 in 0.2 mi NNE 2.3 mph - N/A Fog Light Freezing Fog
9:43 AM 14.0 °F - 12.2 °F 93% 30.24 in 0.2 mi Calm Calm - N/A Fog Light Freezing Fog
9:50 AM 14.0 °F - 14.0 °F 100% 30.24 in 0.2 mi Calm Calm - N/A Fog Light Freezing Fog
9:58 AM 14.0 °F - 14.0 °F 100% 30.24 in 0.6 mi Variable 1.2 mph - N/A Fog Patches of Fog
10:10 AM 14.0 °F - 14.0 °F 100% 30.24 in 0.7 mi Variable 2.3 mph - N/A   Partly Cloudy
10:20 AM 15.8 °F - 15.8 °F 100% 30.24 in 0.9 mi SE 2.3 mph - N/A   Partly Cloudy
10:50 AM 21.2 °F 16.4 °F 21.2 °F 100% 30.24 in 1.2 mi West 3.5 mph - N/A   Mist
11:00 AM 21 °F - 21 °F 100%  in 1 mi West 3.5 mph - - Fog Light Fog
11:20 AM 23.0 °F 18.4 °F 23.0 °F 100% 30.24 in 1.2 mi NNE 3.5 mph - N/A   Mist
11:50 AM 24.8 °F 20.5 °F 23.0 °F 93% 30.21 in 1.4 mi ENE 3.5 mph - N/A   Mist
12:20 PM 26.6 °F 21.2 °F 24.8 °F 93% 30.21 in 1.7 mi ENE 4.6 mph - N/A   Mist
12:50 PM 28.4 °F 24.6 °F 26.6 °F 93% 30.21 in - NE 3.5 mph - N/A   Scattered Clouds
1:20 PM 32.0 °F - 26.6 °F 80% 30.21 in 2.5 mi Variable 2.3 mph - N/A   Scattered Clouds
1:50 PM 32.0 °F 28.7 °F 24.8 °F 75% 30.21 in 6.2 mi ENE 3.5 mph - N/A   Scattered Clouds
2:00 PM 32 °F - 24 °F 64%  in 12 mi ENE 3.5 mph - -   Partly Cloudy
2:20 PM 33.8 °F - 24.8 °F 70% 30.21 in 6.2 mi Variable 1.2 mph - N/A   Scattered Clouds
2:50 PM 35.6 °F - 24.8 °F 65% 30.21 in 6.2 mi Variable 1.2 mph - N/A   Scattered Clouds
3:20 PM 33.8 °F - 24.8 °F 70% 30.21 in 6.2 mi Variable 2.3 mph - N/A   Scattered Clouds
3:50 PM 32.0 °F - 24.8 °F 75% 30.18 in 6.2 mi Variable 2.3 mph - N/A   Scattered Clouds
4:20 PM 32.0 °F - 24.8 °F 75% 30.18 in 6.2 mi Variable 2.3 mph - N/A   Scattered Clouds
4:50 PM 30.2 °F - 24.8 °F 80% 30.18 in 6.2 mi Variable 1.2 mph - N/A   Scattered Clouds
5:00 PM 29 °F - 26 °F 81%  in 12 mi East 1.2 mph - -   Partly Cloudy
5:20 PM 28.4 °F - 26.6 °F 93% 30.21 in 6.2 mi Calm Calm - N/A   Scattered Clouds
5:50 PM 28.4 °F - 24.8 °F 86% 30.21 in 6.2 mi Calm Calm - N/A Snow Light Snow
6:20 PM 28.4 °F 24.6 °F 26.6 °F 93% 30.21 in 6.2 mi NE 3.5 mph - N/A   Scattered Clouds
6:50 PM 26.6 °F 20.0 °F 26.6 °F 100% 30.21 in 6.2 mi SE 5.8 mph - N/A   Scattered Clouds
7:20 PM 28.4 °F 24.6 °F 28.4 °F 100% 30.21 in 6.2 mi Variable 3.5 mph - N/A   Scattered Clouds
7:50 PM 26.6 °F - 26.6 °F 100% 30.21 in 6.2 mi Variable 2.3 mph - N/A   Scattered Clouds
8:00 PM 27 °F - 27 °F 99%  in 12 mi East 2.3 mph - -   Partly Cloudy
8:20 PM 26.6 °F - 26.6 °F 100% 30.21 in 6.2 mi Variable 1.2 mph - N/A   Scattered Clouds
8:50 PM 26.6 °F - 26.6 °F 100% 30.21 in 6.2 mi Variable 2.3 mph - N/A   Partly Cloudy
9:20 PM 30.2 °F 26.7 °F 26.6 °F 86% 30.21 in 6.2 mi SSW 3.5 mph - N/A   Partly Cloudy
9:50 PM 32.0 °F 27.5 °F 26.6 °F 80% 30.18 in 6.2 mi SSW 4.6 mph - N/A   Partly Cloudy
10:20 PM 32.0 °F 27.5 °F 26.6 °F 80% 30.18 in 6.2 mi SSW 4.6 mph - N/A   Partly Cloudy
10:50 PM 32.0 °F 27.5 °F 26.6 °F 80% 30.18 in 6.2 mi SSW 4.6 mph - N/A   Scattered Clouds
11:00 PM 32 °F - 24 °F 64%  in 12 mi SSW 4.6 mph - -   Partly Cloudy
11:20 PM 32.0 °F 27.5 °F 26.6 °F 80% 30.18 in 6.2 mi SSW 4.6 mph - N/A   Scattered Clouds
11:50 PM 32.0 °F 25.6 °F 26.6 °F 80% 30.18 in 6.2 mi SW 6.9 mph - N/A   Scattered Clouds